Staunton, VA

9:52 AM EDT on April 23, 2018 (GMT -0400)
Shenandoah Valley Regional

Weather History for KSHD - March, 2013

Change the Weather History Date:

Sunday, March 3, 2013

  Actual Average Record
Temperature  
Mean Temperature 32 °F -  
Max Temperature 43 °F 51 °F 69 °F (2008)
Min Temperature 21 °F 30 °F 0 °F (2014)
Degree Days  
Heating Degree Days 33    
Moisture  
Dew Point 15 °F    
Average Humidity 53    
Maximum Humidity 81    
Minimum Humidity 33    
Precipitation  
Precipitation 0.00 in - - ()
Sea Level Pressure  
Sea Level Pressure 29.88 in    
Wind  
Wind Speed 3 mph (NW)    
Max Wind Speed 15 mph    
Max Gust Speed 21 mph    
Visibility 10 miles    
Events      
Averages and records for this station are not official NWS values.
T = Trace of Precipitation, MM = Missing Value Source: NWS Daily Summary

Daily Weather History Graph

Daily Weather History Graph

Search for Another Location

Airport or City:

Astronomy

Mar. 03, 2013 Rise Set
Actual Time 6:44 AM EST 6:11 PM EST
Civil Twilight 6:17 AM EST 6:37 PM EST
Nautical Twilight 5:47 AM EST 7:08 PM EST
Astronomical Twilight 5:16 AM EST 7:38 PM EST
Moon No Moon Rise 10:03 AM EST (3/3)
Length of Visible Light 12h 19m
Length of Day
11h 26m
Waning Gibbous, 64% of the Moon is Illuminated
Mar 3
Waning Gibbous
Mar 4
Last Quarter
Mar 11
New
Mar 19
First Quarter
Mar 27
Full

Hourly Weather History & Observations

Time (EST) Temp. Windchill Dew Point Humidity Pressure Visibility Wind Dir Wind Speed Gust Speed Precip Events Conditions
12:15 AM 29.8 °F - 18.0 °F 61% 29.86 in 10.0 mi Calm Calm - N/A   Overcast
12:35 AM 29.8 °F - 17.1 °F 59% 29.86 in 10.0 mi Calm Calm - N/A   Overcast
12:55 AM 30.2 °F 26.7 °F 16.7 °F 57% 29.86 in 10.0 mi North 3.5 mph - N/A   Overcast
1:15 AM 29.8 °F 24.9 °F 16.5 °F 58% 29.87 in 10.0 mi NNW 4.6 mph - N/A   Scattered Clouds
1:35 AM 28.4 °F 24.6 °F 17.1 °F 63% 29.87 in 10.0 mi NNW 3.5 mph - N/A   Clear
1:55 AM 27.5 °F - 16.5 °F 63% 29.87 in 10.0 mi Calm Calm - N/A   Clear
2:35 AM 25.7 °F - 17.2 °F 70% 29.86 in 10.0 mi Calm Calm - N/A   Clear
2:55 AM 26.1 °F - 16.5 °F 67% 29.86 in 10.0 mi Calm Calm - N/A   Scattered Clouds
3:15 AM 25.0 °F - 16.2 °F 69% 29.85 in 10.0 mi Calm Calm - N/A   Scattered Clouds
3:35 AM 23.4 °F - 17.4 °F 78% 29.85 in 10.0 mi Calm Calm - N/A   Mostly Cloudy
3:55 AM 23.9 °F - 17.4 °F 76% 29.85 in 10.0 mi Calm Calm - N/A   Mostly Cloudy
4:15 AM 23.9 °F - 16.7 °F 74% 29.85 in 10.0 mi Calm Calm - N/A   Mostly Cloudy
4:35 AM 21.9 °F - 16.9 °F 81% 29.85 in 10.0 mi Calm Calm - N/A   Overcast
4:55 AM 21.7 °F - 16.2 °F 79% 29.85 in 10.0 mi Calm Calm - N/A   Mostly Cloudy
5:15 AM 23.2 °F - 16.5 °F 76% 29.86 in 10.0 mi Calm Calm - N/A   Clear
5:35 AM 23.0 °F - 15.8 °F 74% 29.86 in 10.0 mi Calm Calm - N/A   Clear
5:55 AM 23.4 °F - 15.6 °F 72% 29.86 in 10.0 mi Calm Calm - N/A   Clear
6:15 AM 23.4 °F - 15.4 °F 72% 29.86 in 10.0 mi Calm Calm - N/A   Clear
7:15 AM 22.6 °F - 15.8 °F 75% 29.87 in 10.0 mi Calm Calm - N/A   Scattered Clouds
7:55 AM 25.9 °F - 18.7 °F 74% 29.88 in 10.0 mi Calm Calm - N/A   Overcast
8:15 AM 28.4 °F - 17.2 °F 63% 29.89 in 10.0 mi Calm Calm - N/A   Overcast
8:35 AM 31.1 °F - 17.6 °F 57% 29.88 in 10.0 mi Calm Calm - N/A   Overcast
8:55 AM 31.8 °F 28.5 °F 16.2 °F 52% 29.88 in 10.0 mi WNW 3.5 mph - N/A   Overcast
9:15 AM 32.4 °F 26.0 °F 15.6 °F 50% 29.88 in 10.0 mi West 6.9 mph - N/A   Overcast
9:35 AM 33.8 °F 27.0 °F 15.8 °F 48% 29.89 in 10.0 mi NW 8.1 mph - N/A   Overcast
9:55 AM 33.6 °F 26.8 °F 15.4 °F 47% 29.88 in 10.0 mi WNW 8.1 mph - N/A   Overcast
10:15 AM 35.4 °F - 14.9 °F 43% 29.88 in 10.0 mi Calm Calm - N/A   Overcast
10:35 AM 34.5 °F 30.4 °F 14.4 °F 44% 29.88 in 10.0 mi WNW 4.6 mph - N/A   Overcast
10:55 AM 36.9 °F 31.4 °F 13.1 °F 38% 29.87 in 10.0 mi NW 6.9 mph - N/A   Overcast
11:15 AM 36.0 °F 33.3 °F 13.1 °F 39% 29.86 in 10.0 mi WNW 3.5 mph 17.3 mph N/A   Scattered Clouds
11:35 AM 38.3 °F 35.9 °F 13.8 °F 37% 29.86 in 10.0 mi WNW 3.5 mph - N/A   Scattered Clouds
11:55 AM 38.8 °F 33.2 °F 13.6 °F 36% 29.86 in 10.0 mi NW 8.1 mph - N/A   Scattered Clouds
12:15 PM 40.1 °F 34.7 °F 13.6 °F 34% 29.85 in 10.0 mi NNW 8.1 mph - N/A   Mostly Cloudy
12:35 PM 39.4 °F 33.2 °F 14.2 °F 36% 29.84 in 10.0 mi NW 9.2 mph - N/A   Scattered Clouds
12:55 PM 40.8 °F 36.2 °F 14.2 °F 34% 29.84 in 10.0 mi NW 6.9 mph 16.1 mph N/A   Scattered Clouds
1:15 PM 41.0 °F 37.1 °F 14.2 °F 34% 29.82 in 10.0 mi North 5.8 mph - N/A   Mostly Cloudy
1:35 PM 42.1 °F 36.6 °F 15.4 °F 34% 29.82 in 10.0 mi NW 9.2 mph - N/A   Mostly Cloudy
1:55 PM 40.5 °F 35.8 °F 14.5 °F 35% 29.82 in 10.0 mi NW 6.9 mph - N/A   Overcast
2:15 PM 40.6 °F 37.5 °F 14.4 °F 34% 29.81 in 10.0 mi North 4.6 mph - N/A   Overcast
2:35 PM 41.0 °F 34.7 °F 14.7 °F 34% 29.81 in 10.0 mi NNW 10.4 mph - N/A   Overcast
2:55 PM 43.0 °F 37.2 °F 15.8 °F 33% 29.81 in 10.0 mi NNW 10.4 mph - N/A   Overcast
3:35 PM 41.5 °F 35.0 °F 15.3 °F 35% 29.82 in 10.0 mi NW 11.5 mph 18.4 mph N/A   Mostly Cloudy
3:55 PM 40.3 °F 32.2 °F 15.1 °F 36% 29.82 in 10.0 mi WNW 15.0 mph 20.7 mph N/A   Overcast
4:35 PM 38.3 °F 31.4 °F 14.5 °F 38% 29.84 in 10.0 mi NW 10.4 mph - N/A   Scattered Clouds
4:55 PM 37.8 °F 30.2 °F 14.9 °F 39% 29.84 in 10.0 mi NW 11.5 mph - N/A   Clear
5:15 PM 36.7 °F 28.4 °F 14.0 °F 39% 29.85 in 10.0 mi NW 12.7 mph - N/A   Clear
5:35 PM 35.6 °F 27.1 °F 13.6 °F 41% 29.85 in 10.0 mi NW 12.7 mph - N/A   Clear
5:55 PM 34.2 °F 24.8 °F 14.2 °F 44% 29.87 in 10.0 mi NW 13.8 mph 19.6 mph N/A   Clear
6:15 PM 32.4 °F 25.3 °F 14.2 °F 47% 29.88 in 10.0 mi NW 8.1 mph 18.4 mph N/A   Clear
6:35 PM 31.8 °F 24.6 °F 14.0 °F 48% 29.89 in 10.0 mi WNW 8.1 mph - N/A   Clear
6:55 PM 31.5 °F 22.3 °F 14.0 °F 49% 29.90 in 10.0 mi WNW 11.5 mph 16.1 mph N/A   Clear
7:15 PM 31.1 °F 23.1 °F 14.0 °F 49% 29.91 in 10.0 mi WNW 9.2 mph - N/A   Clear
7:35 PM 30.4 °F 24.5 °F 13.8 °F 50% 29.91 in 10.0 mi WNW 5.8 mph - N/A   Clear
7:55 PM 29.1 °F - 14.0 °F 53% 29.92 in 10.0 mi Calm Calm - N/A   Clear
8:15 PM 28.2 °F - 13.8 °F 55% 29.92 in 10.0 mi Calm Calm - N/A   Clear
8:35 PM 27.0 °F - 14.4 °F 59% 29.93 in 10.0 mi Calm Calm - N/A   Clear
8:55 PM 26.2 °F - 14.0 °F 60% 29.93 in 10.0 mi Calm Calm - N/A   Clear
9:15 PM 27.1 °F 21.8 °F 13.3 °F 56% 29.94 in 10.0 mi WNW 4.6 mph - N/A   Clear
9:35 PM 27.5 °F 20.2 °F 12.7 °F 54% 29.95 in 10.0 mi WNW 6.9 mph - N/A   Clear
9:55 PM 27.1 °F 19.7 °F 12.2 °F 53% 29.95 in 10.0 mi WNW 6.9 mph - N/A   Clear
10:15 PM 27.3 °F 22.0 °F 11.8 °F 52% 29.95 in 10.0 mi West 4.6 mph - N/A   Clear
10:35 PM 27.3 °F 18.4 °F 12.0 °F 53% 29.96 in 10.0 mi WNW 9.2 mph - N/A   Clear
10:55 PM 26.1 °F - 12.0 °F 55% 29.96 in 10.0 mi Calm Calm - N/A   Clear
11:15 PM 25.5 °F - 12.2 °F 57% 29.96 in 10.0 mi Calm Calm - N/A   Clear
11:35 PM 25.0 °F - 12.7 °F 60% 29.96 in 10.0 mi Calm Calm - N/A   Clear
11:55 PM 25.5 °F - 12.6 °F 58% 29.96 in 10.0 mi Calm Calm - N/A   Clear